Wind_Speed
29 31 32 33 34 35 35 34 33 34 35 35 36 36 36 36 36 37 36 36 35 34 33 32 31 30 29 28 28 27 25 26 27 27 29 31 31 32 32 31 28 24 22 24 23 23 23 23 24 25 25 27 34 41 33 38 41 41 45 41 36 36 35 25 14 12 17 27 37 42 49 52 46 47 51 49 52 53 50 51 53 54 57 56 53
30 31 32 33 34 35 35 35 35 36 36 37 37 36 36 36 36 35 36 35 33 33 33 32 31 30 29 28 27 27 27 29 29 26 25 28 30 32 32 31 29 25 23 23 22 22 23 23 24 24 23 26 32 40 34 35 41 38 42 44 38 37 38 30 18 12 13 21 34 40 47 52 48 46 51 51 53 53 51 51 51 52 56 57 54
30 31 32 33 34 35 35 35 35 36 36 36 36 35 35 36 36 35 35 35 33 32 32 32 32 31 30 29 28 28 28 29 29 26 24 26 28 31 32 31 29 25 23 23 21 20 21 21 23 23 22 25 31 39 36 33 40 39 41 44 41 38 38 37 29 18 13 19 32 38 41 46 47 48 51 53 54 52 50 51 51 51 55 56 55
30 31 32 33 34 34 35 35 34 34 34 35 35 35 36 36 35 34 34 34 33 33 33 32 32 32 31 30 29 29 28 28 28 27 27 26 25 28 30 30 30 25 22 23 20 19 19 19 22 23 22 25 30 36 36 32 37 38 39 40 39 37 37 40 40 33 23 17 26 39 44 43 44 46 48 50 51 50 49 50 50 51 55 55 55
30 31 31 33 35 34 34 33 32 33 34 35 35 35 34 34 33 32 32 32 33 34 33 32 31 31 31 30 29 29 28 29 30 29 28 27 25 27 29 31 32 27 23 23 21 19 19 19 20 22 22 25 28 32 34 32 35 35 36 36 36 37 38 40 41 41 36 25 23 34 40 39 38 41 46 49 46 44 44 47 50 51 53 54 54
29 31 32 33 34 34 33 31 31 33 34 35 36 34 31 30 30 31 30 30 32 34 32 31 31 32 32 31 30 30 30 31 32 30 28 28 27 27 30 32 33 30 25 24 23 21 20 19 19 21 23 26 28 30 32 32 35 34 36 36 35 37 37 38 39 39 39 35 31 31 32 34 36 36 42 50 48 43 40 41 45 47 49 51 52
30 31 32 33 33 33 32 30 31 33 34 35 34 32 30 30 30 31 30 29 31 34 32 32 32 32 32 31 30 30 30 31 31 29 28 29 28 27 29 31 31 29 26 25 24 21 20 19 18 20 23 26 27 30 32 30 33 35 38 38 37 39 35 36 39 36 33 32 32 33 33 34 37 37 40 49 50 47 44 38 36 40 45 49 50
32 33 33 33 34 33 32 31 32 33 33 34 33 30 31 32 31 31 31 30 31 33 32 32 33 33 32 31 30 29 30 30 30 29 28 28 28 27 27 28 29 28 27 27 25 22 21 20 20 20 23 26 28 30 32 31 32 32 37 40 39 39 36 34 36 34 31 28 27 32 34 31 32 33 35 40 37 36 43 42 38 38 39 44 47
32 33 33 32 33 34 33 32 32 32 33 33 32 31 31 32 31 31 32 31 31 32 32 32 33 33 33 32 31 30 30 30 29 28 27 26 26 26 26 27 27 27 28 27 25 23 22 21 22 22 25 28 28 31 32 32 36 32 33 40 40 38 37 34 33 32 29 25 22 26 28 25 28 29 30 36 37 36 44 45 38 35 35 35 39
31 31 32 33 33 34 34 32 31 31 33 32 31 30 32 32 31 31 31 31 31 32 31 31 30 31 31 31 30 28 28 28 28 27 27 27 27 27 26 27 26 26 28 27 25 24 23 23 24 24 27 30 30 30 32 31 43 41 35 42 44 41 38 34 32 33 28 20 20 23 18 17 29 36 35 41 43 41 43 43 36 34 33 28 27
31 31 32 33 34 34 35 34 31 31 32 32 31 31 32 32 31 32 32 32 33 31 30 29 29 29 29 29 29 27 27 27 27 28 29 28 28 28 26 26 26 26 27 26 25 24 24 25 25 27 29 31 31 30 31 29 42 51 42 44 50 48 46 39 33 35 33 24 25 29 22 19 32 42 40 39 41 42 43 43 40 37 33 25 19
31 32 32 33 34 34 34 34 32 33 33 33 32 33 33 32 31 32 33 33 33 31 29 28 28 27 27 28 28 28 28 29 29 30 30 30 29 28 27 26 25 25 26 26 26 25 25 26 27 29 30 30 32 31 31 30 36 53 48 47 53 54 55 52 43 39 38 31 29 31 31 30 35 40 42 41 42 43 43 42 42 41 37 30 23
31 33 34 33 33 35 34 32 32 33 33 33 33 32 31 31 31 32 33 33 32 31 29 28 27 26 26 27 28 28 29 29 29 30 31 31 30 28 27 26 25 25 26 27 28 27 26 26 27 29 30 29 32 32 30 29 33 50 51 50 54 56 59 60 57 52 48 42 35 34 38 40 39 42 48 49 45 42 40 39 41 42 40 35 32
31 32 34 33 33 35 36 34 33 33 33 32 31 30 31 32 33 33 33 32 31 30 29 28 27 26 26 27 28 28 29 29 29 29 29 30 29 28 27 27 27 28 28 29 30 29 28 28 27 28 30 30 31 32 29 26 31 44 48 48 51 55 58 59 60 59 55 51 46 43 44 47 48 48 50 52 52 49 45 43 44 43 41 38 36
31 31 33 34 35 36 35 33 32 32 32 31 30 30 31 33 34 35 34 32 31 30 29 29 29 29 29 29 28 29 30 30 30 30 29 28 28 28 28 28 28 29 30 31 32 32 31 29 28 28 29 30 32 32 29 26 29 37 42 45 47 50 54 55 57 59 57 57 58 56 54 55 56 55 53 55 59 59 54 51 48 42 36 32 29
30 31 32 35 35 33 32 32 32 32 31 31 30 31 32 34 36 36 33 32 30 30 32 33 32 33 34 33 29 29 32 31 29 30 29 28 28 27 27 27 27 28 30 32 33 33 32 31 29 28 29 31 34 34 31 27 28 34 38 42 44 44 48 53 57 60 59 58 59 60 59 59 60 62 64 63 61 57 50 43 41 38 33 26 23
29 31 33 34 33 31 29 31 33 32 31 31 32 34 33 35 39 36 31 29 28 28 33 35 34 34 37 36 30 27 31 32 29 29 29 27 27 26 25 25 26 27 29 32 33 33 33 33 31 29 29 30 35 35 32 29 28 34 35 37 40 39 43 48 52 57 59 57 57 59 60 60 59 62 66 65 60 56 48 39 38 40 33 21 16
30 31 31 31 31 30 31 32 33 33 33 33 34 36 35 37 39 35 29 28 29 29 31 33 35 35 37 37 31 27 31 33 31 30 30 28 27 26 25 24 24 25 27 30 32 32 33 34 32 31 30 31 35 35 31 29 29 35 34 34 35 34 38 42 45 49 53 53 53 55 57 60 61 61 62 60 57 59 57 50 48 45 33 22 19
30 29 29 30 30 31 33 34 34 34 35 35 35 35 35 35 34 32 29 30 31 31 29 29 32 33 36 39 35 29 30 34 33 31 32 31 29 27 26 24 22 22 23 26 28 30 31 32 33 33 32 33 36 36 32 30 30 37 37 33 30 31 38 43 43 43 43 41 42 46 50 55 58 59 60 58 57 62 63 60 57 50 37 30 27
28 27 28 30 32 33 34 35 35 34 35 36 34 33 32 32 31 31 32 31 29 29 28 28 30 32 36 39 36 31 31 35 35 32 31 32 32 30 28 24 21 20 21 23 25 26 27 30 31 32 33 34 37 38 34 31 32 38 40 35 32 35 41 44 44 45 42 38 38 42 46 49 52 55 58 58 59 62 60 58 61 58 46 37 34
27 28 30 33 34 35 35 34 35 35 34 33 33 32 32 32 32 32 32 31 29 29 30 29 28 30 32 31 31 32 33 35 37 35 32 32 34 33 29 26 24 23 22 22 23 23 25 27 29 31 32 34 37 37 34 33 34 38 43 44 43 43 43 43 43 45 43 40 39 40 41 44 46 49 53 56 58 60 56 56 63 64 55 48 42
29 31 33 34 34 35 35 34 34 33 31 30 31 33 33 32 32 31 30 30 30 29 28 27 26 26 26 25 26 30 32 33 35 37 35 34 35 35 34 31 31 29 24 23 24 24 25 27 28 28 30 31 34 35 34 34 36 40 46 48 45 43 45 44 43 43 41 39 39 37 37 40 41 43 48 51 54 57 55 54 59 60 58 59 57
33 33 33 34 34 34 34 34 33 30 29 30 31 33 33 32 30 30 29 27 27 26 25 26 26 24 24 24 24 25 27 28 29 32 35 35 34 35 36 35 35 34 29 25 25 25 26 27 27 26 27 29 31 33 33 34 38 43 45 43 42 45 46 43 41 40 37 36 36 34 35 39 40 41 45 48 51 55 54 52 55 54 51 53 59
33 32 33 33 33 33 33 33 31 29 29 30 30 30 32 31 29 28 27 25 23 23 24 25 25 23 22 24 25 24 25 27 27 28 31 34 35 35 36 36 36 35 32 28 27 27 27 27 26 26 27 28 30 32 33 35 40 45 44 42 44 46 44 40 39 38 34 31 32 32 35 41 42 43 47 49 50 53 52 49 51 53 47 46 52
31 31 32 32 32 33 33 31 29 27 28 30 29 29 29 29 27 26 25 23 21 22 23 24 23 23 22 22 25 27 27 27 28 29 30 29 29 30 32 34 36 35 33 29 29 30 30 29 26 26 26 27 29 31 33 37 43 46 45 44 45 44 41 39 39 36 32 31 33 34 38 44 46 46 48 48 47 47 46 44 45 48 45 44 47
30 29 31 31 31 31 31 30 28 27 28 28 28 28 28 27 26 25 23 22 22 22 23 23 23 23 22 22 24 26 27 27 27 28 28 28 29 28 27 28 31 32 33 32 32 32 32 30 28 28 29 29 30 31 32 37 44 47 47 45 44 42 40 39 38 35 33 34 36 37 40 43 43 41 42 44 45 46 46 43 41 42 41 40 40
28 28 29 30 30 30 29 28 28 28 28 28 28 28 28 27 25 24 23 22 21 20 21 23 23 21 20 22 24 24 25 25 26 27 28 29 30 31 30 28 26 23 25 28 31 32 33 33 31 30 30 30 30 32 33 35 41 44 44 43 42 42 43 44 44 41 39 38 38 37 37 37 37 37 39 43 45 46 48 45 41 39 40 38 35
26 27 27 28 28 28 27 27 27 28 28 27 26 27 28 28 25 23 23 23 21 21 20 20 21 22 21 20 21 21 21 22 23 27 32 34 33 32 30 28 25 21 19 20 23 27 29 29 28 28 27 27 27 29 29 29 34 37 38 39 40 42 45 46 45 42 40 38 35 32 31 34 36 38 41 42 42 44 46 45 41 40 40 36 31
24 25 25 26 27 27 27 27 27 27 27 26 26 26 27 27 26 25 26 26 25 25 24 22 22 24 21 19 18 16 17 20 26 30 34 35 34 32 30 28 26 25 22 20 20 21 22 21 20 20 20 21 21 21 21 22 26 30 34 37 37 38 40 40 38 37 37 36 32 31 34 36 36 38 40 38 38 41 44 44 40 39 39 36 31
23 23 24 25 26 26 26 26 27 27 26 25 26 28 28 27 25 25 27 29 29 28 27 26 27 27 23 21 20 19 20 26 32 34 35 35 34 32 31 30 30 29 28 26 22 18 16 15 16 17 17 16 16 15 15 17 21 24 29 33 33 34 36 37 38 38 37 36 35 36 37 37 35 36 37 35 34 37 41 42 41 39 38 35 31
21 22 23 24 25 25 25 26 26 26 25 24 25 28 30 30 29 28 28 30 31 31 30 31 31 29 28 27 26 25 26 31 35 36 36 37 35 33 31 29 28 28 27 25 21 17 14 11 10 14 17 15 14 14 14 16 19 22 26 29 32 35 36 37 38 39 37 36 37 37 37 37 38 38 38 37 35 35 37 38 38 38 38 37 32
20 21 22 23 24 24 24 25 25 25 25 24 24 25 27 28 31 36 37 35 32 30 31 34 35 32 32 33 32 30 30 32 36 37 38 37 36 33 29 26 25 26 26 23 16 13 13 11 8 11 14 13 14 16 17 17 20 24 25 26 29 34 37 38 39 39 37 35 35 35 36 38 39 40 40 38 35 34 35 36 36 36 35 34 33
18 20 21 22 23 23 24 24 24 24 24 24 24 25 25 24 24 31 40 44 44 40 36 37 38 36 35 36 36 35 34 35 37 38 39 39 38 32 23 15 11 10 13 18 15 11 12 12 11 12 14 14 16 18 18 19 22 25 27 27 28 32 36 38 38 37 37 36 35 35 35 36 37 37 38 38 36 34 35 36 36 34 31 30 30
17 17 18 19 21 23 23 23 23 23 23 24 23 23 25 25 23 24 28 32 38 41 40 40 41 39 37 39 41 39 38 38 38 38 40 41 39 34 32 30 28 28 22 13 8 6 9 11 12 15 16 16 17 17 19 20 22 24 26 29 30 32 33 34 34 34 35 35 35 35 35 35 34 33 34 35 35 34 33 34 34 33 31 30 29
18 18 18 19 20 22 22 23 23 22 22 24 24 23 24 25 24 24 22 19 21 26 31 36 41 39 37 39 42 42 41 41 40 40 41 42 42 43 44 37 30 29 31 29 22 14 10 7 7 12 15 18 19 18 18 20 23 24 25 26 27 29 31 33 35 36 35 35 34 34 35 36 36 36 35 35 35 33 32 34 35 34 33 31 29
18 18 19 20 21 21 22 22 22 21 21 22 23 24 25 24 23 23 23 23 25 26 26 32 39 40 37 39 44 45 42 40 39 39 39 41 44 46 40 28 20 19 22 24 22 19 19 19 17 14 9 9 18 21 21 21 23 25 26 26 25 26 29 33 35 36 35 35 35 35 36 35 36 37 35 34 36 37 35 36 36 35 34 33 30
17 17 19 20 20 21 22 23 21 20 20 21 23 25 25 23 23 24 24 24 26 26 27 32 38 40 38 40 45 46 41 37 40 44 44 45 47 45 38 31 26 22 21 24 24 21 21 24 26 25 24 18 8 9 16 21 24 25 25 26 27 28 30 33 35 35 35 34 34 34 35 35 37 38 36 32 33 35 35 36 36 34 35 35 32
16 16 16 17 18 19 21 23 22 22 22 21 23 25 25 23 24 25 25 25 24 24 26 29 32 34 36 38 41 43 41 42 49 53 52 49 45 40 37 39 37 31 29 32 32 27 24 28 30 29 29 30 27 18 7 8 18 23 24 25 27 30 33 33 33 34 34 33 32 33 34 34 35 37 37 34 33 33 33 34 34 32 32 33 31
16 16 15 15 16 18 20 21 22 22 23 22 22 24 24 23 25 26 26 25 24 23 24 26 27 32 37 39 40 42 41 41 43 45 46 47 44 36 34 39 42 39 35 35 36 32 28 28 31 32 31 32 32 31 25 14 3 13 22 26 25 26 29 29 30 31 33 33 32 33 34 35 35 36 36 35 34 33 32 32 33 32 30 31 33
16 17 16 15 16 17 19 20 21 22 22 21 22 23 23 23 24 25 25 24 22 23 25 26 28 34 38 38 40 41 37 32 32 35 39 43 42 37 34 37 40 40 38 36 35 33 30 29 30 31 31 32 32 32 31 27 19 6 10 21 24 25 26 29 31 32 32 33 33 34 34 35 36 36 35 35 35 36 34 33 33 33 32 32 34
15 16 16 16 17 18 19 21 21 21 21 21 20 21 23 23 24 25 25 24 22 22 24 27 32 37 39 38 40 41 36 31 30 33 35 36 37 35 35 35 35 36 37 37 35 33 31 31 32 32 32 33 33 33 33 33 30 24 12 3 14 20 24 27 29 31 32 32 33 33 33 35 35 35 35 36 36 35 35 33 33 33 32 32 31
15 16 16 16 18 19 20 20 20 20 21 21 21 22 22 22 23 26 26 24 23 22 23 29 38 42 41 37 38 42 42 37 35 35 37 37 35 34 35 35 35 34 34 34 35 34 32 32 33 33 34 35 35 34 34 34 33 32 28 20 9 4 12 19 24 28 30 31 32 33 33 34 35 36 36 36 34 32 30 30 30 30 30 30 29
15 15 15 16 17 18 18 18 19 20 20 20 21 23 23 21 22 24 25 25 26 25 24 29 38 42 42 39 40 43 47 45 41 42 44 43 39 36 35 35 35 35 36 36 35 35 34 33 34 35 35 35 35 35 34 33 33 32 33 31 26 17 8 5 11 19 24 27 28 30 31 32 33 33 32 32 32 31 30 29 29 28 28 28 28
15 15 15 15 16 17 17 17 18 18 19 18 20 22 23 22 22 24 24 25 29 30 28 30 34 38 41 43 43 44 46 46 44 44 47 47 43 38 36 36 37 37 37 38 38 37 36 35 36 37 37 37 38 37 36 35 35 34 33 34 33 28 22 14 5 6 16 21 23 24 25 27 28 28 27 28 29 29 28 28 28 28 28 27 26
14 15 15 15 16 17 17 18 18 17 18 19 20 22 23 22 22 23 23 23 27 31 31 32 33 35 38 41 42 41 42 43 44 44 45 46 45 40 36 37 38 37 38 39 39 39 39 38 37 38 39 39 40 39 39 39 38 37 36 36 35 32 28 22 14 4 9 17 21 21 22 23 23 23 22 24 26 25 24 25 27 26 26 25 25
13 14 15 15 16 17 17 17 17 17 18 19 19 20 21 21 22 23 23 23 25 28 30 32 32 33 35 38 39 39 39 41 43 44 44 44 45 44 41 39 37 37 38 40 39 40 41 40 39 39 40 39 40 41 41 41 41 41 40 40 38 34 31 26 19 12 8 12 18 21 21 21 21 21 21 22 23 22 21 21 23 23 24 24 24
12 13 14 14 15 16 16 16 16 17 18 18 18 18 20 20 21 22 23 23 24 25 27 28 29 30 33 36 37 37 38 40 42 44 43 43 44 45 45 43 40 37 38 40 40 41 41 42 41 41 41 41 42 42 43 43 43 43 43 43 41 38 34 29 26 21 16 12 13 17 19 19 18 19 20 21 21 21 20 19 20 21 21 21 21
10 11 13 14 14 15 16 16 17 17 17 18 18 17 18 19 20 21 22 22 23 24 25 26 27 28 31 34 35 35 37 39 41 42 42 42 43 43 45 45 42 39 38 39 41 42 42 42 43 43 43 43 43 43 43 44 45 45 45 44 42 39 35 32 30 28 24 20 18 16 17 17 17 16 17 18 18 18 18 18 17 19 19 19 19
9 10 11 12 13 15 15 15 16 16 16 17 17 18 18 18 19 20 20 21 21 22 23 25 26 27 28 31 33 34 35 37 39 39 39 40 40 40 41 43 43 41 39 38 39 40 41 42 43 44 45 45 44 44 44 45 45 45 45 44 41 38 36 34 32 30 28 26 24 23 22 21 21 19 17 17 16 16 16 15 14 15 16 16 17
7 9 10 11 12 13 14 14 15 15 15 16 17 18 18 18 19 19 20 20 21 22 23 24 25 26 27 29 30 31 32 34 35 36 37 38 38 38 39 40 42 42 41 38 37 38 40 40 41 43 45 46 46 45 45 45 45 45 44 43 42 40 37 35 33 31 29 29 28 27 27 27 26 25 23 21 20 19 18 17 16 15 13 12 13
6 7 9 9 10 11 13 13 15 16 16 16 17 18 18 19 19 19 18 18 19 21 23 23 24 24 26 28 28 28 29 31 32 33 34 35 35 36 37 37 38 40 41 40 39 39 40 40 40 40 41 44 46 46 46 45 45 45 44 43 43 41 39 37 35 32 30 30 31 30 30 31 31 30 28 26 24 24 22 21 20 19 17 15 14
Wind_Direction
317 316 315 315 312 310 309 306 304 303 302 300 298 296 293 293 296 296 295 295 293 290 287 285 285 284 282 282 282 284 288 291 293 290 290 292 292 293 293 287 271 257 257 258 255 254 252 254 259 261 271 277 282 284 252 199 185 179 172 174 179 176 171 166 156 152 164 168 165 167 171 171 173 175 175 178 180 180 179 178 180 181 178 184 189
317 315 314 313 311 310 309 307 305 303 302 299 298 299 296 293 296 295 293 294 293 290 288 284 283 282 281 280 280 283 287 288 288 287 285 286 288 291 292 289 278 262 258 261 260 261 259 258 260 260 268 273 277 283 264 206 186 181 175 174 179 180 177 168 153 142 147 158 161 163 169 171 172 175 177 178 179 179 179 179 183 182 178 182 187
316 315 314 312 310 310 308 307 306 303 301 298 297 300 298 295 296 294 291 293 293 291 289 285 282 281 279 279 279 281 284 283 283 284 285 283 284 288 288 287 282 265 255 260 261 264 265 266 267 264 266 270 272 281 269 217 188 181 177 176 177 178 176 165 154 150 146 153 159 161 166 170 171 174 179 180 178 177 178 181 184 182 179 181 185
316 315 313 311 310 310 309 308 306 301 298 296 294 299 300 297 295 293 290 291 291 291 290 285 281 279 278 278 278 279 279 279 281 283 284 281 280 284 284 285 283 270 255 256 257 260 265 268 271 268 267 266 268 278 268 225 192 182 177 175 174 171 168 163 158 155 149 150 163 165 166 170 172 174 175 177 177 176 178 183 184 182 181 184 186
317 315 313 312 312 312 311 309 304 299 297 296 294 297 301 299 296 293 290 289 291 292 290 286 281 277 277 277 276 276 276 276 279 280 279 277 277 281 283 282 282 276 264 258 256 257 261 266 270 269 269 265 264 275 266 225 195 185 177 173 170 164 162 162 160 157 154 153 161 167 167 165 167 172 173 172 173 175 178 184 185 183 183 185 188
317 315 315 314 313 313 312 308 305 301 298 297 296 296 298 300 299 296 291 289 291 292 289 285 282 278 276 276 275 274 274 274 276 276 275 276 275 277 279 279 279 277 269 261 257 257 258 262 270 270 270 266 261 270 264 225 195 185 178 171 165 160 158 161 160 159 158 157 156 161 166 163 160 167 174 173 172 173 175 180 185 185 185 185 187
317 316 316 315 314 313 311 307 305 302 298 297 298 296 296 299 301 299 295 290 291 292 289 286 284 280 277 277 275 274 274 272 272 273 274 275 273 271 273 274 275 275 272 264 258 257 258 262 271 273 273 270 263 268 262 228 198 186 179 171 163 158 156 158 160 159 157 156 156 159 165 168 165 168 175 176 174 175 173 173 180 185 185 186 187
318 318 318 316 314 312 310 306 304 302 300 299 298 297 297 300 300 299 297 292 290 292 290 287 285 282 278 277 276 274 273 272 271 271 271 271 268 266 267 269 272 273 272 266 259 257 259 264 270 274 278 276 270 271 263 230 202 188 179 171 164 160 157 157 158 157 154 155 159 162 164 167 167 165 168 170 171 176 177 176 179 183 182 185 186
318 318 317 315 314 312 310 307 304 303 302 301 300 299 300 301 301 300 298 294 290 290 290 287 285 282 279 278 277 275 273 270 268 267 266 265 263 262 263 265 268 269 268 266 260 257 260 266 272 277 283 285 278 277 271 237 207 192 177 170 166 161 158 158 158 156 155 156 160 163 162 163 163 159 162 170 174 177 178 178 180 181 178 178 182
318 317 316 314 313 313 311 308 306 306 304 303 303 304 303 303 302 299 297 295 291 290 289 286 284 282 280 280 278 275 272 268 267 265 263 261 260 259 262 263 265 267 267 264 259 258 261 266 275 279 284 292 287 280 280 249 210 195 181 172 168 163 159 159 160 158 156 157 160 163 163 166 169 169 173 178 177 173 174 175 174 173 171 169 176
318 316 314 314 314 315 315 313 311 310 308 306 305 307 306 305 303 300 297 296 293 291 288 286 283 281 280 281 279 276 272 268 268 267 265 262 259 258 259 260 263 264 263 262 257 258 263 265 273 280 280 290 293 286 290 268 214 194 186 177 172 168 165 163 163 162 160 160 165 167 169 173 177 177 177 176 173 171 174 175 171 170 171 171 174
318 315 315 316 317 318 318 316 314 313 312 311 309 310 309 307 305 302 298 296 293 289 286 285 285 282 280 279 278 276 273 269 268 269 266 263 260 259 260 260 262 262 260 262 259 257 263 264 268 276 275 284 293 291 296 283 221 193 187 183 176 173 172 170 170 168 165 164 168 173 175 175 177 178 177 175 173 173 174 174 173 174 177 179 177
318 316 317 318 318 320 320 317 316 315 315 314 312 312 310 307 307 304 300 297 292 286 284 286 286 282 278 276 275 275 274 271 270 269 266 264 258 257 260 260 262 264 260 261 260 255 258 260 262 271 273 278 289 291 295 283 227 194 186 184 180 177 177 177 177 176 173 170 170 176 179 175 175 180 180 176 172 170 172 175 176 177 179 182 181
318 317 318 319 319 322 322 320 319 318 317 316 314 311 310 309 308 305 301 296 291 285 284 287 288 283 277 274 273 274 274 273 273 270 266 263 258 256 260 260 260 263 261 260 258 253 251 252 255 264 270 275 282 288 293 276 227 194 182 182 181 180 180 181 180 179 177 175 175 178 180 178 179 181 180 177 173 173 175 176 178 180 181 182 182
318 317 318 320 321 323 323 321 318 318 317 316 313 311 310 309 309 307 302 294 288 285 286 289 290 286 282 278 274 272 273 274 274 272 268 263 258 255 257 258 256 258 259 258 255 252 248 247 250 256 264 271 274 281 290 272 226 194 181 180 182 182 183 183 182 180 179 181 181 180 182 182 181 180 179 180 180 181 181 179 178 177 174 170 170
318 320 320 321 323 323 323 320 318 317 316 315 314 313 311 310 310 307 298 290 285 286 290 294 292 289 287 284 276 271 274 276 274 272 269 263 258 256 254 255 255 254 257 257 253 250 246 242 245 250 256 265 269 275 286 272 227 195 182 181 181 183 185 186 186 184 183 185 185 184 183 184 183 181 182 182 182 180 175 170 169 168 164 158 157
321 322 321 322 324 323 322 321 319 317 316 315 313 313 311 310 310 305 294 287 287 289 293 296 294 290 288 285 277 269 273 278 275 272 269 262 258 258 255 255 256 255 256 257 253 249 244 239 241 245 249 258 264 268 280 274 230 198 185 181 180 183 187 188 188 188 187 188 188 186 184 183 183 184 184 183 180 174 165 159 165 169 166 160 156
323 322 321 322 323 322 322 322 319 317 316 315 313 312 311 310 311 307 297 296 299 298 296 296 294 291 288 284 277 270 272 278 276 271 269 262 257 259 259 258 259 257 257 258 253 247 243 239 238 241 244 252 258 261 272 270 231 200 188 183 180 184 188 187 188 190 190 190 188 186 183 182 183 184 183 181 178 174 170 170 172 171 169 171 168
324 323 321 321 322 322 323 323 321 318 316 314 313 312 313 314 314 312 307 306 306 303 301 298 295 292 289 287 282 273 270 276 276 270 267 263 258 258 259 258 259 260 259 258 252 245 240 236 236 239 241 247 253 257 265 264 231 202 190 184 182 186 187 184 184 187 188 187 183 180 179 180 180 180 180 180 179 180 180 177 173 171 173 174 167
323 320 319 321 323 324 325 323 322 320 316 315 315 316 317 318 316 314 312 309 307 306 304 303 298 292 290 290 286 278 272 274 274 269 263 262 259 256 256 258 262 265 262 257 251 243 238 235 235 238 240 245 251 253 258 258 233 204 190 186 187 189 186 182 182 184 183 181 178 176 176 177 176 176 177 179 181 185 185 180 176 177 177 171 170
322 322 322 324 325 326 327 325 323 322 319 317 317 318 320 319 315 314 313 311 311 310 309 308 304 299 297 295 289 284 280 275 273 270 265 261 259 256 255 257 261 262 261 257 250 242 238 236 237 239 240 243 249 251 253 252 233 207 193 192 192 187 180 178 180 180 179 177 175 174 174 174 174 175 176 180 183 186 186 184 183 184 182 177 178
326 325 325 327 328 328 329 328 326 324 322 322 321 320 320 319 316 315 315 313 312 313 313 313 312 308 308 308 300 294 289 280 273 272 269 263 258 254 251 251 254 255 256 254 249 243 241 239 239 241 240 242 247 249 249 246 232 211 200 195 190 183 178 176 175 175 175 173 171 171 171 172 175 177 179 182 185 186 187 188 187 188 188 187 187
329 329 328 329 330 330 331 330 329 327 326 325 323 321 321 321 319 318 318 316 315 317 318 317 315 314 313 313 310 306 303 297 285 278 274 268 261 256 253 250 250 250 249 248 245 243 243 242 242 243 242 244 248 248 246 240 227 214 204 195 185 181 178 173 169 170 171 170 168 169 172 176 178 181 183 185 187 187 189 190 189 189 189 190 191
331 332 332 332 332 333 332 332 331 330 330 328 324 322 323 324 322 321 320 319 319 319 319 317 316 315 314 315 317 317 315 313 309 300 290 279 268 261 258 257 255 252 249 246 245 244 244 243 244 245 245 246 249 249 246 237 223 213 205 194 184 179 173 167 167 168 167 167 169 171 176 181 183 184 186 186 186 187 188 188 190 191 191 191 192
333 334 334 333 334 334 333 333 333 332 332 330 326 323 324 324 324 323 322 322 322 321 319 316 316 318 318 317 318 318 317 317 316 315 313 305 291 278 269 265 262 257 252 249 244 243 245 245 246 249 249 250 253 252 246 235 221 211 203 193 183 175 170 167 168 168 167 171 175 178 181 184 186 186 186 184 183 184 185 187 189 191 192 193 194
334 335 335 335 335 335 334 334 334 334 334 332 329 327 326 325 323 323 323 324 324 320 317 317 319 321 320 318 316 317 319 321 317 315 320 325 322 314 302 289 274 261 253 250 247 245 247 247 249 251 250 249 251 250 244 232 218 207 200 192 182 174 172 171 169 170 175 178 180 183 185 184 183 183 180 178 180 182 183 184 186 188 189 190 190
336 335 336 336 336 337 336 334 334 335 335 334 333 332 331 328 324 324 326 325 320 315 316 322 327 323 317 319 321 320 319 320 320 320 323 324 322 319 315 309 296 277 259 251 248 247 248 248 249 250 249 250 252 250 242 227 212 202 195 188 181 177 176 176 176 178 181 182 183 184 182 177 174 174 175 178 182 184 184 183 181 184 186 186 185
338 336 337 338 337 338 338 335 335 335 334 335 337 336 333 331 328 327 327 324 318 315 319 325 325 318 317 323 326 322 319 319 320 320 320 320 318 314 310 307 303 295 280 265 256 251 247 247 247 247 247 250 253 251 239 218 202 194 189 184 182 180 179 180 181 181 183 183 182 175 169 168 170 173 177 182 185 184 184 183 183 182 183 182 184
341 339 340 340 339 339 339 338 338 336 334 336 339 337 334 332 330 331 333 332 330 329 330 332 326 319 320 328 328 321 317 318 319 320 319 317 314 310 303 297 293 289 285 282 275 260 245 237 236 237 237 240 244 243 229 205 190 187 185 183 181 180 179 181 182 183 183 181 175 168 166 169 173 176 179 184 186 184 184 184 184 182 181 184 189
341 341 342 342 340 341 340 339 340 339 336 337 338 338 338 338 338 341 342 341 342 341 341 342 339 335 336 340 336 329 325 323 325 327 326 323 317 310 300 291 284 279 276 274 273 263 243 227 224 224 224 229 233 229 212 191 182 181 182 182 181 179 179 183 185 184 181 178 175 174 172 172 173 176 180 183 184 185 185 185 184 181 182 186 191
340 340 342 341 340 341 340 339 340 339 338 339 340 340 339 340 346 352 353 350 349 348 349 352 350 348 350 349 345 342 340 337 337 338 336 332 326 317 306 292 279 271 267 263 259 251 237 224 221 220 219 222 225 218 201 185 179 178 179 182 183 182 183 186 187 184 180 178 178 178 176 174 174 177 181 183 181 182 184 185 185 185 186 188 189
342 340 341 340 340 341 340 340 341 341 341 342 343 343 341 340 346 352 356 358 356 352 355 358 356 355 357 356 355 355 351 349 349 348 346 343 337 330 319 299 280 268 259 251 246 241 234 227 222 219 217 218 219 210 197 186 183 182 180 183 187 187 188 189 187 183 181 180 180 179 179 179 178 178 180 181 179 178 181 184 186 188 188 189 190
347 342 341 340 340 341 341 342 342 343 345 345 344 344 345 344 345 346 350 356 0 1 2 1 359 359 1 0 1 1 359 358 359 357 356 356 353 352 355 350 336 311 270 249 238 229 226 225 224 221 218 217 215 207 195 189 189 187 185 187 189 190 190 189 185 184 184 184 182 181 182 183 181 179 178 178 177 178 182 185 187 187 186 188 192
355 350 346 342 340 341 342 343 342 342 347 349 347 345 346 347 346 341 340 348 356 358 359 359 358 360 3 4 5 5 5 5 5 4 7 6 4 14 33 39 37 35 28 5 326 272 240 228 224 222 219 216 214 208 197 192 190 188 190 191 191 189 188 185 184 186 187 186 185 184 183 183 182 180 177 177 179 181 183 186 187 186 187 189 190
3 360 357 352 347 344 345 345 344 344 348 351 351 350 348 347 347 344 336 332 337 343 348 353 355 358 4 8 7 7 9 10 9 10 14 13 15 28 38 35 25 23 22 16 8 356 338 317 271 241 227 217 213 209 200 194 191 191 192 192 189 185 182 182 186 190 189 187 188 187 185 183 183 183 180 179 180 182 185 188 189 190 190 189 187
8 4 2 357 352 349 349 350 350 349 349 352 355 355 352 349 349 350 346 343 344 344 345 350 353 358 5 10 9 9 10 11 12 15 17 17 23 32 37 29 14 11 9 5 5 7 7 4 356 342 318 248 220 212 204 196 194 195 194 190 185 181 181 185 189 190 189 190 191 189 186 184 184 184 184 183 184 185 187 189 191 192 191 189 187
12 7 4 358 354 353 355 357 357 355 354 357 360 1 359 356 356 358 356 353 352 352 352 354 356 357 1 7 8 7 5 7 15 21 21 20 25 31 30 23 17 15 8 2 1 3 9 11 10 8 6 1 328 237 213 202 198 197 194 190 186 184 186 190 191 189 189 191 192 189 187 187 186 185 185 186 189 190 189 189 190 192 191 190 188
21 16 8 359 357 359 359 0 2 1 0 2 4 5 4 0 1 4 2 355 353 352 352 353 354 353 354 360 3 3 3 9 17 20 19 18 20 24 24 21 18 15 12 9 6 5 10 13 14 14 14 13 12 8 343 224 203 196 191 188 188 190 190 191 191 190 191 192 191 190 189 189 189 187 187 188 190 191 191 190 189 189 188 188 188
29 26 19 9 7 9 6 5 5 4 3 3 5 6 4 360 2 7 4 357 354 352 349 350 351 352 355 360 3 3 4 9 13 13 12 13 16 17 18 19 17 13 12 11 9 10 13 13 14 16 17 15 16 17 14 5 293 205 194 189 189 191 190 189 189 191 192 192 192 191 190 190 190 190 190 191 191 191 190 190 190 188 186 188 192
32 30 25 20 19 17 15 13 11 8 6 4 3 5 6 3 5 7 3 356 353 351 351 354 357 358 0 7 11 10 8 7 8 8 9 11 13 14 16 17 15 12 11 10 8 10 12 13 15 18 18 16 16 18 19 18 14 355 205 195 193 191 189 189 190 192 193 194 193 191 191 191 190 189 191 194 194 192 190 189 190 190 189 191 194
39 34 30 29 28 27 24 21 15 11 10 7 4 6 7 7 8 10 6 359 354 350 350 356 3 5 6 10 15 17 16 11 7 8 9 9 11 13 15 15 13 12 11 10 8 8 10 13 16 19 19 19 19 19 20 22 23 22 19 207 199 195 192 192 193 192 193 194 194 192 192 192 190 189 192 195 195 193 191 190 190 190 191 193 195
46 40 35 33 34 33 29 23 17 15 14 11 9 9 9 7 9 12 11 5 360 354 351 358 6 10 11 9 12 17 20 16 10 8 10 11 12 13 14 14 14 13 13 12 10 9 11 15 18 20 21 21 20 21 21 21 22 25 26 27 33 164 187 192 194 194 193 193 193 193 193 192 192 193 194 194 192 190 190 190 189 189 190 191 191
54 48 41 37 37 36 32 25 21 19 16 11 9 10 11 9 8 12 13 11 8 5 0 1 7 11 12 12 14 19 21 19 15 13 13 13 12 12 12 13 14 14 15 16 15 14 16 19 21 23 24 24 23 24 24 23 22 24 26 28 30 35 52 138 184 192 193 193 193 193 192 191 192 193 193 191 189 188 186 186 186 187 189 190 190
57 54 48 43 40 38 35 31 26 21 17 14 13 13 14 10 8 10 13 13 13 12 9 7 8 10 12 14 17 19 20 19 17 15 15 14 13 12 12 13 14 16 17 18 18 19 21 23 24 25 26 26 26 27 27 27 28 27 26 27 27 27 27 30 46 178 187 188 188 187 187 189 190 191 189 188 189 188 186 184 184 186 188 188 188
55 53 49 46 42 39 36 33 28 22 20 18 16 15 14 11 9 10 12 12 13 14 13 12 11 10 11 13 15 15 17 18 17 16 15 15 14 14 12 13 15 17 18 19 20 22 24 25 26 26 26 26 26 27 28 28 30 30 29 28 27 24 22 21 23 58 171 180 179 177 177 181 183 184 184 185 188 189 188 186 185 185 185 186 187
50 50 48 45 41 37 34 31 26 22 20 18 15 13 12 10 9 10 10 10 10 12 13 13 12 11 12 13 14 14 15 17 18 18 16 16 17 17 17 16 18 19 20 21 23 24 26 27 27 28 27 26 27 27 28 28 29 31 31 31 30 28 28 30 38 56 112 162 172 173 173 174 174 176 178 179 182 185 185 185 185 185 185 187 190
47 47 45 43 40 36 32 29 25 21 18 17 14 12 11 9 8 9 9 10 9 9 10 11 11 11 13 14 14 15 15 17 19 20 19 18 20 22 22 22 22 21 22 24 26 26 28 28 29 29 29 29 28 29 29 29 29 30 31 32 33 33 36 40 46 55 71 105 141 158 163 163 163 169 173 174 176 179 179 180 184 186 187 188 189
41 43 41 40 37 32 28 26 23 19 16 13 10 8 8 9 9 8 8 9 9 8 8 9 9 10 12 14 16 17 17 18 20 21 21 21 23 25 26 27 27 25 24 26 28 29 30 30 30 31 31 30 30 30 29 30 30 30 31 32 34 37 41 45 48 53 62 77 95 112 127 132 133 140 150 157 163 166 167 170 176 181 183 186 186
32 34 34 35 33 29 25 23 20 17 15 11 7 6 6 7 8 8 7 7 7 7 7 8 8 8 10 13 15 17 18 19 19 20 21 23 26 28 29 32 32 31 29 28 28 30 31 32 32 32 32 32 31 31 30 30 31 32 32 33 36 40 44 47 49 53 60 69 77 85 93 98 101 103 109 121 132 138 140 143 149 158 166 172 176
29 26 25 27 27 23 22 21 18 16 15 11 6 5 4 4 5 6 6 5 5 5 6 6 7 7 8 11 13 15 17 19 19 19 21 24 27 29 31 33 34 34 33 32 31 31 32 33 33 33 33 33 33 32 31 31 31 32 34 38 41 44 46 48 51 55 60 65 70 75 79 82 84 84 85 91 99 106 111 114 117 123 132 138 146
26 24 21 22 20 16 15 15 14 14 13 11 7 4 2 1 2 3 3 3 2 2 3 5 6 6 8 11 13 14 16 18 20 21 22 24 26 29 31 32 33 35 35 35 34 32 32 33 34 34 34 34 33 33 32 31 31 34 39 43 46 48 50 52 54 58 62 66 70 73 74 75 75 74 73 76 79 82 86 92 98 104 107 108 113
Height
755 753 749 746 743 739 737 735 732 730 727 724 721 716 713 709 704 701 697 693 691 687 684 682 679 678 676 675 673 670 668 666 663 661 658 654 651 648 645 642 639 636 635 634 634 634 633 631 629 628 627 627 625 623 617 609 604 603 606 614 622 627 631 636 646 660 670 674 676 682 689 695 703 709 712 718 726 731 736 741 746 751 756 761 766
753 750 747 744 741 737 734 731 728 726 722 719 716 711 707 704 700 696 692 689 686 682 679 677 675 673 671 670 669 667 665 663 660 658 654 651 648 645 642 639 636 634 633 632 631 630 629 626 624 623 624 623 621 619 615 607 603 602 603 610 619 625 628 633 641 654 665 673 676 681 687 692 698 706 710 714 721 728 733 739 745 749 753 758 763
750 747 744 740 738 735 731 728 725 722 718 714 710 707 702 699 696 692 687 684 681 678 675 673 670 668 667 665 664 663 662 659 656 654 650 647 644 641 639 637 634 632 630 629 628 626 625 622 620 619 619 620 617 614 611 605 601 600 601 606 613 619 624 629 636 646 657 667 674 678 685 690 695 701 707 712 718 725 731 737 741 746 751 756 760
747 744 741 737 734 732 728 725 722 717 714 709 705 702 698 694 691 687 683 680 676 673 671 668 666 663 662 661 660 659 657 655 652 650 647 644 640 637 635 633 631 629 627 626 624 623 621 619 618 617 616 615 614 611 607 602 599 597 598 602 608 614 621 626 631 639 650 662 670 674 680 686 692 698 704 712 719 724 730 735 739 744 749 754 759
744 741 738 734 730 728 725 722 718 714 710 705 701 697 693 689 686 683 679 675 672 668 666 663 661 658 656 655 655 653 652 650 647 645 643 640 637 633 630 628 626 624 623 622 620 620 618 617 616 615 614 612 611 608 603 599 595 594 595 599 605 611 618 624 629 635 643 654 665 673 678 683 690 697 703 709 717 725 730 734 738 742 747 753 757
742 738 735 731 727 724 722 719 715 711 706 701 696 692 688 685 681 678 675 671 667 664 661 658 656 653 651 650 649 648 646 645 641 639 638 635 632 629 626 623 621 619 617 617 616 616 615 615 614 612 611 610 608 604 600 595 591 590 592 596 603 609 615 622 629 634 639 647 657 668 677 681 686 696 702 705 712 720 726 733 739 742 746 750 755
739 735 732 728 725 722 719 716 712 708 702 697 693 688 684 681 677 673 671 666 662 659 655 653 651 648 646 645 644 643 641 639 636 634 632 630 628 625 622 620 617 613 612 611 611 611 611 611 610 610 609 608 605 601 596 592 588 587 589 594 600 606 613 620 627 633 639 647 654 662 672 678 683 691 699 704 709 714 720 727 735 740 743 747 750
735 732 729 725 722 719 716 713 708 703 699 693 689 685 680 677 673 669 666 662 658 654 651 648 645 643 641 640 639 638 636 633 631 629 627 625 623 621 619 616 613 609 607 606 606 606 607 606 606 606 606 604 602 597 593 589 587 585 587 591 596 602 610 617 624 631 638 647 654 659 667 676 683 689 697 704 710 714 718 722 727 733 739 743 746
733 730 726 723 720 716 713 709 704 699 694 689 685 681 676 672 668 665 661 657 653 649 646 644 641 638 636 634 633 632 630 627 625 624 623 621 619 617 615 612 609 607 604 601 600 601 602 602 601 601 602 600 597 593 590 587 585 584 585 588 593 599 607 614 621 629 636 644 653 659 666 673 679 687 693 697 701 707 714 720 726 731 736 740 744
731 727 723 720 717 713 709 705 700 695 690 685 681 677 672 668 664 660 656 653 649 645 641 639 636 633 630 628 628 626 624 622 620 619 618 616 614 612 610 608 606 604 601 598 596 596 597 597 597 596 596 594 591 588 587 585 583 583 583 585 588 594 602 611 618 624 632 641 650 657 664 670 673 677 682 687 693 701 709 716 723 729 734 739 743
728 725 721 717 713 710 705 700 696 692 687 682 678 673 669 664 660 656 652 648 644 640 637 633 630 628 626 623 622 620 618 616 615 614 612 611 610 607 605 603 602 601 599 595 593 592 593 593 593 593 591 589 585 582 582 581 580 580 582 583 585 588 594 603 612 618 625 635 645 651 657 663 667 670 676 683 690 697 704 710 716 722 728 732 737
725 721 718 714 710 706 702 696 692 687 683 678 674 669 666 661 657 652 647 643 639 635 632 628 625 623 621 619 617 615 613 610 610 609 607 605 604 602 600 598 597 596 595 593 591 589 589 589 589 588 587 584 582 579 577 576 575 577 580 583 585 587 590 596 604 611 617 626 637 643 647 654 661 666 672 678 683 690 698 705 709 714 719 723 727
723 718 714 711 707 703 699 694 689 684 680 676 671 666 662 657 653 649 643 639 635 630 627 623 620 618 616 614 611 609 606 604 603 603 601 599 599 597 595 593 592 591 590 590 589 587 586 586 585 583 582 580 578 576 573 573 572 573 576 580 583 586 589 593 598 604 610 619 628 635 640 647 654 659 663 668 676 685 694 700 704 708 713 717 721
720 716 712 709 705 700 696 691 686 681 677 673 668 664 659 654 650 645 640 635 631 626 622 619 616 613 610 608 606 603 600 598 597 596 595 593 593 592 591 588 587 586 585 585 585 584 583 582 580 579 577 576 574 572 571 571 571 571 573 577 581 584 588 592 596 601 608 614 621 629 636 642 646 652 659 664 669 675 682 689 696 703 708 714 720
718 714 710 706 702 698 693 687 682 677 673 669 665 661 656 651 646 642 637 632 627 622 618 615 611 608 606 604 601 598 594 591 590 590 589 588 588 587 586 584 582 581 580 580 580 579 578 577 576 574 573 571 570 569 569 569 569 568 570 574 579 583 586 590 593 598 603 609 613 620 628 635 640 647 655 660 663 667 674 682 691 700 707 714 722
716 712 708 704 700 696 690 684 679 674 670 666 662 658 653 648 643 639 633 627 623 618 614 611 607 604 601 599 597 593 588 586 585 584 583 583 582 581 580 579 577 576 574 573 573 573 572 571 571 570 569 567 566 566 567 568 568 567 567 571 576 581 584 587 591 595 599 605 610 615 621 628 635 640 645 650 658 667 677 687 695 701 707 714 722
714 711 707 702 698 694 689 684 678 672 668 664 659 655 650 645 640 635 629 624 619 615 610 606 603 600 596 593 592 588 583 580 580 579 578 578 577 576 575 574 572 570 568 567 567 566 566 565 565 565 565 565 564 564 564 565 566 564 564 568 574 579 583 587 592 596 599 604 608 612 617 624 632 638 642 647 655 662 672 683 691 697 702 710 718
713 709 705 700 696 692 688 683 677 671 667 662 657 652 647 642 637 632 628 622 617 613 608 602 597 595 592 588 586 584 579 575 575 574 573 573 572 571 570 568 567 565 563 562 560 560 560 560 560 561 561 561 562 562 562 563 563 562 562 565 570 575 580 585 592 597 601 604 608 612 616 621 628 636 643 649 655 657 660 667 677 687 695 701 708
712 707 703 699 695 690 686 681 676 671 665 660 655 650 645 640 636 632 627 622 616 611 606 600 594 590 588 583 580 579 575 570 569 569 568 568 568 567 565 563 562 560 559 557 556 555 555 554 555 556 556 558 559 559 559 561 560 558 559 563 567 570 574 580 587 594 600 605 609 614 618 621 626 633 641 648 653 654 654 657 666 677 686 693 701
710 706 701 697 693 689 684 679 674 670 664 658 654 649 645 640 635 631 626 621 615 609 604 598 592 586 583 579 575 573 570 566 564 563 563 563 562 562 561 559 557 557 556 554 552 551 550 549 550 551 552 554 555 555 555 557 557 556 556 558 560 562 568 576 583 589 597 603 609 613 617 622 626 631 637 644 648 651 653 656 660 667 676 686 694
708 704 699 695 691 686 683 678 672 668 663 658 653 648 644 640 635 630 625 620 614 608 602 596 590 583 580 576 572 568 566 562 559 557 558 558 557 557 557 555 553 553 552 551 549 547 546 545 545 546 549 550 550 550 551 553 554 554 552 550 553 558 566 574 581 588 595 601 607 613 617 622 626 630 635 639 642 646 651 654 656 661 667 675 684
707 702 698 694 689 685 680 676 671 667 662 658 653 647 643 639 634 629 625 619 614 608 601 595 589 582 578 574 570 565 562 559 555 552 551 551 550 551 551 549 549 549 547 546 545 543 542 541 541 543 545 546 546 546 546 549 551 550 548 548 554 561 566 571 578 586 593 598 604 610 615 620 624 629 632 636 639 643 647 651 654 658 662 666 672
705 701 696 692 688 683 679 674 670 666 662 658 653 647 642 638 634 629 625 620 614 608 602 596 589 583 577 573 569 564 560 557 554 549 546 544 543 544 544 543 543 543 542 540 539 539 539 538 538 539 540 541 541 541 543 545 546 546 547 551 556 560 564 570 577 583 590 596 601 606 611 615 619 623 627 630 635 639 643 649 653 658 663 666 669
703 699 695 690 686 682 677 673 669 666 662 658 652 647 642 637 634 629 625 620 614 609 603 597 591 584 578 572 568 564 560 555 552 548 544 540 538 537 537 536 537 537 536 534 534 534 534 533 533 534 535 536 538 538 539 541 541 543 547 552 554 556 562 569 575 581 589 594 598 602 606 608 611 615 619 623 630 636 642 648 653 658 663 667 670
701 698 694 689 686 681 676 673 669 666 663 658 653 648 642 638 634 630 626 621 616 611 605 599 592 586 580 574 569 564 560 555 550 546 543 539 535 533 533 531 531 531 530 529 528 528 528 528 529 530 531 533 535 536 536 536 537 540 546 549 551 554 559 565 571 578 585 589 593 595 598 599 603 608 615 622 630 637 643 648 653 658 663 667 671
701 697 693 689 685 681 676 672 668 666 663 658 653 649 644 639 635 630 626 622 617 612 606 600 594 587 581 576 570 564 560 556 551 546 542 539 535 532 530 528 525 524 524 523 523 523 522 523 525 525 527 530 532 533 532 531 533 537 542 546 548 551 556 562 567 573 578 581 584 588 591 595 601 609 617 624 629 634 638 644 650 656 660 664 669
701 697 693 689 685 681 677 673 668 665 662 658 653 649 644 640 635 630 627 622 617 613 607 600 595 589 582 577 571 566 561 557 552 546 541 538 535 531 528 525 521 519 519 518 518 518 518 519 520 522 525 527 528 529 528 527 529 533 538 542 545 548 552 556 560 565 570 574 579 584 590 596 603 610 617 622 625 628 633 639 645 651 657 661 666
701 698 693 689 685 681 677 674 669 665 662 658 654 649 644 640 636 631 628 623 617 612 607 601 596 590 583 577 572 568 563 558 554 549 543 539 535 531 526 523 520 517 516 516 515 514 514 516 518 520 522 524 525 525 524 523 526 529 534 538 542 544 548 552 556 561 567 573 579 585 591 596 601 607 613 617 620 624 629 635 640 645 652 658 662
701 698 693 689 685 681 678 674 670 667 662 658 655 651 647 642 637 632 628 624 619 613 607 602 597 590 584 580 575 569 563 558 555 552 546 541 537 532 527 522 519 516 514 514 514 512 512 513 515 516 518 519 520 520 520 520 522 526 530 535 538 542 547 551 555 560 565 572 578 583 587 592 597 603 608 613 617 621 625 630 635 641 648 653 656
700 697 693 689 685 681 678 675 671 668 664 659 655 650 646 643 639 634 628 623 618 614 608 603 597 591 585 581 577 572 566 559 554 550 544 539 534 529 524 520 517 514 512 512 512 511 509 509 510 511 513 514 515 515 515 516 519 523 527 532 536 540 544 548 551 556 562 568 573 577 580 585 592 599 605 609 614 619 622 626 631 637 642 646 650
700 697 693 690 686 683 680 676 672 669 665 661 657 650 644 639 635 632 629 623 617 612 608 603 597 592 586 581 576 571 566 559 552 547 541 534 528 522 518 514 512 510 509 509 510 508 507 506 506 507 509 510 510 511 511 513 515 518 523 528 532 535 539 542 547 553 558 563 567 571 575 580 585 592 598 603 609 615 620 625 629 633 636 639 644
701 697 694 691 687 684 681 677 674 670 666 663 659 653 647 639 631 626 624 622 618 613 608 602 596 591 586 581 575 569 565 559 552 545 539 532 524 516 511 507 506 505 505 506 505 504 503 503 503 503 505 506 506 507 508 510 511 514 518 522 526 529 532 537 542 548 554 558 562 567 571 574 578 584 590 597 604 610 616 621 624 627 632 636 640
701 698 695 691 688 685 682 678 675 672 668 665 660 656 652 645 637 628 621 616 613 610 605 601 596 590 585 580 575 570 565 559 552 546 539 531 523 514 507 503 502 502 502 502 502 500 500 500 500 500 502 502 502 504 505 506 509 511 514 516 520 524 528 534 540 546 550 554 559 563 567 571 576 580 586 592 599 604 609 614 618 623 629 633 636
700 698 695 692 689 686 683 680 677 674 671 668 664 660 656 651 645 638 628 619 612 607 602 599 595 590 585 581 575 570 565 559 554 549 542 534 526 517 507 501 500 500 501 502 502 500 498 497 497 497 498 499 500 502 503 504 506 509 511 513 517 521 527 534 539 543 547 551 556 560 564 569 574 579 583 588 594 599 604 609 613 618 621 625 630
699 697 695 692 690 687 684 681 678 675 673 670 666 663 660 654 648 643 636 629 622 615 609 603 597 592 588 583 577 572 567 562 557 552 545 539 531 518 509 507 509 509 509 510 509 506 503 500 498 497 496 497 498 499 500 502 504 506 508 511 515 520 525 530 535 539 543 547 551 556 560 565 569 574 578 582 586 592 598 603 606 610 613 619 625
699 697 694 692 690 688 685 682 679 677 675 672 668 665 661 656 651 646 641 636 630 623 616 610 602 596 591 586 581 575 570 567 564 558 551 545 535 523 519 522 525 524 521 519 516 512 510 507 504 501 498 496 496 497 498 500 502 504 506 510 514 518 521 525 528 533 538 542 546 551 556 560 564 569 574 577 580 583 588 594 600 604 608 614 619
699 696 694 692 690 688 685 682 680 678 676 673 670 666 662 658 654 649 645 640 634 628 622 614 606 597 590 586 582 579 576 573 568 559 552 546 538 532 532 535 535 532 530 527 522 518 515 512 509 506 503 499 497 497 497 498 500 502 505 508 512 515 518 521 525 529 534 538 542 546 551 555 558 563 568 572 575 578 582 588 594 599 604 609 613
699 697 695 693 691 688 686 682 680 678 676 674 671 667 664 659 655 651 648 644 639 633 628 621 613 605 598 592 589 586 581 572 563 556 553 550 546 544 544 542 540 538 536 532 528 524 520 516 513 510 507 504 501 499 498 498 499 500 503 506 509 513 516 519 523 527 531 535 539 543 547 551 555 558 562 565 569 573 578 583 588 593 599 604 607
698 697 695 693 691 689 686 684 681 679 677 675 672 669 665 661 657 654 652 648 643 638 633 627 621 614 608 603 597 591 583 575 570 568 567 563 559 556 553 549 546 544 541 537 533 529 525 521 518 514 511 508 505 503 501 500 500 500 502 504 507 510 514 517 521 525 528 531 534 538 542 546 550 554 558 561 564 568 573 578 583 587 592 596 599
698 697 695 693 691 689 686 685 683 681 678 677 674 671 668 664 661 658 655 651 647 643 638 633 628 623 617 612 607 600 592 587 584 581 577 571 568 564 560 556 553 550 547 544 540 536 532 529 524 520 517 514 511 508 506 504 502 502 502 503 505 508 511 514 517 520 523 526 530 533 537 541 545 550 554 557 560 563 567 572 577 582 585 589 592
698 697 695 693 691 688 686 685 684 682 681 679 676 673 671 667 665 662 658 655 651 647 642 639 635 630 624 620 616 610 604 599 595 590 585 581 577 572 568 564 561 557 554 550 547 543 540 535 530 526 522 519 516 514 512 510 507 506 505 505 506 507 509 511 514 516 520 523 527 530 534 538 541 545 548 551 555 559 563 568 573 577 582 586 590
698 696 695 694 691 688 687 686 685 684 682 680 678 676 673 671 668 665 661 658 656 652 647 644 640 635 630 626 622 616 611 606 602 597 592 588 584 580 576 573 570 566 562 558 555 551 546 541 536 532 528 526 523 521 518 516 514 513 511 509 509 509 510 511 513 515 517 520 523 527 530 534 537 540 543 547 552 557 561 565 570 574 578 582 587
698 697 696 694 692 690 688 687 686 685 683 681 680 678 675 673 671 668 664 662 659 656 652 648 644 639 635 631 627 621 616 611 608 603 599 594 590 587 583 580 576 573 569 565 562 558 553 547 543 539 536 534 532 529 527 525 522 520 517 515 514 513 513 513 514 516 517 519 522 524 527 531 534 538 541 545 550 554 558 562 567 571 575 579 583
699 697 696 694 693 691 690 688 687 686 684 683 682 679 677 675 673 670 667 665 662 659 656 653 648 644 640 635 631 626 622 618 614 610 605 601 596 593 590 586 582 578 574 571 567 563 558 553 549 545 542 540 538 535 533 531 529 526 523 521 518 517 516 516 516 517 518 519 521 524 527 530 533 537 540 544 547 551 555 559 563 567 572 576 580
699 697 696 695 693 692 690 689 688 687 685 683 682 679 678 677 674 672 670 667 664 662 659 655 652 649 644 640 636 632 629 625 621 617 612 608 604 600 596 592 587 583 579 576 572 568 563 559 555 551 548 546 543 541 538 536 534 531 528 526 524 522 521 520 519 518 519 521 522 524 527 530 533 536 540 542 546 549 553 556 560 564 568 572 575
699 697 696 694 693 692 691 690 689 688 686 685 683 681 679 678 676 674 672 670 667 665 662 658 655 652 649 645 642 638 634 631 627 623 619 614 610 606 602 597 593 590 586 582 578 573 569 565 561 558 556 553 550 547 544 541 538 535 532 530 529 527 526 524 523 521 521 522 523 525 528 530 533 536 539 542 545 549 552 555 559 562 566 569 572
699 697 695 694 693 692 691 690 689 689 687 686 684 682 681 679 677 676 674 671 670 668 665 662 659 656 652 650 646 642 639 636 632 628 625 620 615 611 607 602 598 595 592 588 584 580 576 572 569 565 563 560 557 554 550 547 544 540 537 535 534 533 531 530 528 526 525 524 525 527 529 531 534 537 539 542 545 549 552 555 558 561 564 567 570
698 697 695 694 693 692 691 690 690 689 688 686 685 684 682 680 678 677 675 673 672 670 667 665 663 659 656 653 650 647 643 640 636 633 630 625 621 617 613 608 605 601 597 594 590 586 583 580 576 573 569 566 564 561 558 554 551 547 544 543 542 541 538 535 532 531 529 528 529 530 532 533 536 538 540 543 545 548 551 555 557 560 564 567 569
698 696 694 693 692 691 691 690 690 689 688 687 686 684 682 681 679 677 676 675 673 672 670 668 665 663 660 657 653 650 647 643 640 637 634 630 627 623 619 615 612 607 604 601 597 593 590 587 583 580 577 573 570 568 565 562 559 556 553 551 550 547 543 540 538 536 535 534 534 535 536 537 538 540 542 544 546 548 551 554 557 560 562 565 568
698 696 694 693 692 691 691 690 690 689 688 687 686 684 682 681 679 678 677 676 674 673 671 669 667 665 663 660 657 654 651 648 645 642 638 635 632 628 624 621 617 613 611 608 604 601 598 594 590 587 584 580 577 574 572 569 567 565 562 560 556 553 550 547 546 545 544 543 542 543 542 542 543 545 546 548 549 550 553 555 557 560 563 566 569
697 695 694 693 692 691 691 690 689 689 688 687 686 684 682 681 680 679 677 676 675 674 672 670 669 667 664 662 660 657 655 652 649 646 642 639 636 632 629 626 622 619 616 613 609 607 603 600 597 594 591 587 585 582 579 577 576 573 570 567 563 561 559 557 556 555 554 552 551 550 549 549 549 549 550 552 553 554 556 558 559 562 566 569 571